Regional Weather Roundup
Issued by NWS

Home | Current Version | Previous Version | Graphics & Text | Print | Product List | Glossary On
Versions: 1 2 3 4 5 6 7 8 9 10 11 12 13 14 15 16 17 18 19 20 21 22 23 24 25 26 27 28 29 30 31 32 33 34 35 36 37 38 39 40 41 42 43 44 45 46 47 48 49 50
015
ASUS45 KABQ 270301
RWRNM
NEW MEXICO REGIONAL WEATHER ROUNDUP
NATIONAL WEATHER SERVICE ALBUQUERQUE NM
900 PM MDT WED APR 26 2017

NOTE: "FAIR" MEANS FEW OR NO CLOUDS BELOW 12,000 FEET AGL WITH NO
       SIGNIFICANT WEATHER OR OBSTRUCTIONS TO VISION.

      THIS PRODUCT IS RELEASED AS TWO VERSIONS.  ONE VERSION NEAR
      THE TOP OF THE HOUR CONTAINING PRELIMINARY DATA FROM ALBUQUERQUE
      AND OTHER STATIONS.  A FINAL VERSION WITH ADDITIONAL DATA IS
      ISSUED ABOUT 10 MINUTES AFTER THE HOUR.

NMZ501-503-504-510>518-270400-
NORTHWEST PLATEAU/NORTHCENTRAL MOUNTAINS

CITY           SKY/WX    TMP DP  RH WIND       PRES   REMARKS
FARMINGTON     CLOUDY    56  17  21 CALM      29.75S
LOS ALAMOS     FAIR      50  16  26 CALM      29.83R
SANTA FE       FAIR      49  21  33 CALM      29.80R
TAOS             N/A     45  18  33 SW7       29.84R
ANGEL FIRE     FAIR      40  16  37 W8        29.86S

$$
NMZ402-403-502-505>509-270400-
WESTCENTRAL MOUNTAINS/SOUTHWEST MOUNTAINS

CITY           SKY/WX    TMP DP  RH WIND       PRES   REMARKS
GALLUP         FAIR      56  24  29 W20       29.81F
GRANTS         FAIR      47  17  30 CALM      29.84F
SILVER CITY    FAIR      63  16  16 W9        29.86S

$$
NMZ407-409-411-412-270400-
SOUTHERN DESERTS

CITY           SKY/WX    TMP DP  RH WIND       PRES   REMARKS
DEMING         FAIR      71  16  12 W20       29.79R
LAS CRUCES     FAIR      70  14  11 W16       29.79S
HOLLOMAN AFB   FAIR      69  14  12 S9        29.78R
ALAMOGORDO     FAIR      66  16  14 S10       29.76S
T OR C         FAIR      69  13  11 W13G24    29.74R

$$
NMZ519>523-270400-
CENTRAL VALLEYS/CENTRAL HIGHLANDS

CITY           SKY/WX    TMP DP  RH WIND       PRES   REMARKS
ALBUQUERQUE    MOCLDY    62  20  19 W7        29.78R
DOUBLE EAGLE   MOCLDY    55  23  28 W10       29.80R
MORIARTY ARPT  FAIR      51  20  30 NE6       29.82R
CLINES CORNERS FAIR      45  17  32 NW13      29.84R
BELEN          CLOUDY    61  14  15 NW7       29.79R
SOCORRO        FAIR      60  15  17 SW5       29.77R

$$
NMZ524>526-539-540-270400-
SOUTHCENTRAL MOUNTAINS

CITY           SKY/WX    TMP DP  RH WIND       PRES   REMARKS
RUIDOSO        NOT AVBL

$$
NMZ527>531-270400-
NORTHEAST HIGHLANDS/NORTHEAST PLAINS

CITY           SKY/WX    TMP DP  RH WIND       PRES   REMARKS
LAS VEGAS      FAIR      50  16  25 W15G21    29.80R
RATON          FAIR      43  29  57 NE12      29.75R
CLAYTON        FAIR      43  34  70 NE9       29.77R

$$
NMZ532>537-270400-
EASTCENTRAL PLAINS

CITY           SKY/WX    TMP DP  RH WIND       PRES   REMARKS
SANTA ROSA     FAIR      55  16  21 CALM      29.73R
TUCUMCARI      FAIR      54  37  52 NE10      29.70R
CANNON AFB     CLOUDY    61  28  28 S10       29.73R
CLOVIS AIRPORT FAIR      57  32  38 S9        29.74R

$$
NMZ028-029-538-270400-
SOUTHEAST PLAINS

CITY           SKY/WX    TMP DP  RH WIND       PRES   REMARKS
ROSWELL        FAIR      62  28  27 S9          N/A
ARTESIA        FAIR      63  30  29 S7        29.74S
CARLSBAD       FAIR      65  20  17 SE7       29.74R
HOBBS          FAIR      55  28  35 SE6       29.79R


$$




USA.gov is the U.S. government's official web portal to all federal, state and local government web resources and services.